Home > Weather > Fukuoka > Past weeks

Flag for Japan Past Weather in Fukuoka, Japan — Yesterday and Last 2 Weeks

Now
90 °F

Scattered clouds.


Feels Like: 95 °F
Forecast: 80 / 89 °F
Wind: 5 mph from South

Location: Fukuoka Airport

Current Time: Jul 28, 2016 at 11:54:39 AM

Latest Report: Jul 28, 2016 at 11:00 AM


Visibility: N/A

Pressure: 29.77 "Hg

Humidity: 52%

Dew Point: 70 °F

Location of FukuokaLocation

Past Weather in Fukuoka — Graph

°F

Fukuoka Temperature Yesterday

Maximum temperature yesterday: 95 °F (at 1:00 PM)
Minimum temperature yesterday: 77 °F (at 12:30 AM)
Average temperature yesterday: 85 °F

High & Low Weather Summary for the Past Weeks

 TemperatureHumidityPressure
High95 °F (Jul 27, 1:00 PM)94% (Jul 13, 10:00 AM)29.89 "Hg (Jul 13, 10:00 AM)
Low73 °F (Jul 15, 11:30 PM)44% (Jul 27, 1:00 PM)29.50 "Hg (Jul 14, 1:30 PM)
Average81 °F69%29.76 "Hg
* Reported Jul 13 10:00 AM — Jul 28 10:30 AM, Fukuoka, Weather by CustomWeather, © 2016

Note: Actual official high and low records may vary slightly from our data, if they occured in-between our weather recording intervals... More about our weather records

Advertising

Fukuoka Weather History for the Previous 24 Hours

Scroll right to see more
 ConditionsComfort  
Time TempWeatherWind HumidityBarometerVisibility
10:30 AM
Thu, Jul 28
90 °FPartly sunny.9 mph52%29.80 "HgN/A
10:00 AM88 °FPartly sunny.10 mph59%29.77 "HgN/A
9:30 AM86 °FScattered clouds.12 mph62%29.80 "HgN/A
9:00 AM86 °FScattered clouds.13 mph66%29.80 "HgN/A
8:30 AM82 °FScattered clouds.15 mph70%29.77 "HgN/A
8:00 AM82 °FScattered clouds.14 mph74%29.80 "HgN/A
7:30 AM81 °FPartly sunny.15 mph74%29.77 "HgN/A
7:00 AM81 °FPartly sunny.13 mph74%29.77 "HgN/A
6:30 AM81 °FPartly sunny.10 mph74%29.77 "HgN/A
6:00 AM79 °FPartly sunny.9 mph79%29.77 "HgN/A
5:30 AM79 °FScattered clouds.7 mph79%29.77 "HgN/A
5:00 AM79 °FPassing clouds.10 mph79%29.77 "HgN/A
4:30 AM79 °FPassing clouds.12 mph79%29.77 "HgN/A
4:00 AM79 °FPassing clouds.7 mph79%29.74 "HgN/A
3:30 AM79 °FPassing clouds.6 mph84%29.77 "HgN/A
3:00 AM81 °FPassing clouds.8 mph79%29.74 "HgN/A
2:30 AM81 °FPassing clouds.7 mph79%29.77 "HgN/A
2:00 AM81 °FPassing clouds.7 mph79%29.77 "HgN/A
1:30 AM81 °FPassing clouds.7 mph79%29.74 "HgN/A
1:00 AM81 °FClear.2 mph74%29.74 "Hg10 mi
12:30 AM81 °FClear.2 mph74%29.77 "Hg10 mi
12:00 AM82 °FClear.3 mph70%29.77 "Hg10 mi
11:30 PM
Wed, Jul 27
82 °FPassing clouds.5 mph70%29.77 "HgN/A
11:00 PM82 °FPassing clouds.3 mph70%29.77 "HgN/A
10:30 PM82 °FPassing clouds.1 mph66%29.77 "HgN/A
10:00 PM84 °FPassing clouds.1 mph62%29.77 "HgN/A
9:30 PM84 °FPassing clouds.3 mph62%29.74 "HgN/A
9:00 PM84 °FPassing clouds.6 mph62%29.74 "HgN/A
8:30 PM84 °FPassing clouds.6 mph66%29.74 "HgN/A
8:00 PM86 °FPassing clouds.6 mph62%29.74 "HgN/A
7:30 PM86 °FPartly cloudy.3 mph62%29.71 "HgN/A
7:00 PM86 °FPartly sunny.7 mph59%29.74 "HgN/A
6:30 PM86 °FBroken clouds.7 mph59%29.74 "HgN/A
6:00 PM86 °FScattered clouds.10 mph59%29.74 "HgN/A
5:30 PM88 °FScattered clouds.8 mph55%29.71 "HgN/A
5:00 PM88 °FScattered clouds.8 mph55%29.71 "HgN/A
4:30 PM88 °FBroken clouds.9 mph59%29.74 "HgN/A
4:00 PM90 °FPartly sunny.10 mph55%29.71 "HgN/A
3:30 PM90 °FBroken clouds.12 mph52%29.71 "HgN/A
3:00 PM91 °FPartly sunny.12 mph49%29.71 "HgN/A
2:30 PM91 °FPartly sunny.12 mph49%29.71 "HgN/A
2:00 PM91 °FBroken clouds.9 mph49%29.71 "HgN/A
1:30 PM91 °FBroken clouds.12 mph49%29.71 "HgN/A
1:00 PM95 °FPartly sunny.6 mph44%29.71 "HgN/A
12:30 PM90 °FBroken clouds.6 mph49%29.74 "HgN/A
12:03 PM93 °FPartly sunny.5 mph47%29.74 "HgN/A
12:00 PM90 °FPartly sunny.5 mph52%29.74 "HgN/A
11:30 AM90 °FPartly sunny.7 mph52%29.74 "HgN/A
11:00 AM88 °FPartly sunny.6 mph52%29.74 "HgN/A
Weather by CustomWeather, © 2016

See weather overviewHow to use our weather pages